Погода в Гунунгситоли

Индонезия     1°17′14″N   97°36′27″E
темп.,
°C
ветер,
м/с
пор.,
м/с
влажн.,
%
обл.,
%
осадки,
мм/ч
давл.,
гПа
погр.,
м
2 марта, вт
вт201:00+24зюз009463 0.0 101142
04:00+23зюз009299 0.0 100928
07:00+24ююв119250 0.0 101127
10:00+31ссз116320 0.1 10121015
13:00+29зсз118341 4.0 1010636
16:00+28зюз238618 3.5 1007608
19:00+25зюз129613 5.1 100970
22:00+24зюз1198100 0.6 101144
3 марта, ср
ср301:00+24юз1198100 2.8 101140
04:00+23юз0196100 4.3 100927
07:00+23всв1296100 7.4 101146
10:00+23всв1298100 4.8 1013145
13:00+24юз1193100 5.3 101128
16:00+30зюз105781 0.0 1007711
19:00+24юз118781 0.0 100934
22:00+22ююз018886 0.0 101230
4 марта, чт
чт401:00+22ююв118992 0.1 101127
04:00+22вюв118831 0.3 100926
07:00+23в129247 0.3 101040
10:00+29в25695 0.0 1011849
13:00+33в234917 0.0 10091320
16:00+32ю125812 0.3 10061113
19:00+25юз11936 0.6 100948
22:00+24юз11940 0.1 101138
5 марта, пт
пт501:00+23ю11963 1.2 101132
04:00+23юв01984 5.3 100929
07:00+23ююв019518 5.3 101025
10:00+30всв12630 0.1 10121001
13:00+30ююв116750 1.4 10101036
16:00+28ююз1284100 3.8 1008683
19:00+25зюз0192100 4.1 100936
22:00+24св0095100 0.0 101126
6 марта, сб
сб601:00+24юз0194100 0.0 101127
04:00+24юз1193100 0.0 100932
07:00+23ююз1195100 1.8 101033
10:00+27ссв1288100 4.4 1012295
13:00+31сз1260100 5.6 10101152
16:00+29сз127395 0.7 1008676
19:00+25зюз019398 1.4 101037
22:00+24в009490 0.0 101231